FW0579 Weather Reports


Display with metric or nautical units.
time (UTC)temp
F
wind
direction
speed
MPH
gust
MPH
rain 1hr
in
rain 24hr
in
rain mn
in
humidity
%
barometer
mb
20260509150013 58 275 0.0 0.0 0.00 0.00 0.00 85 1014.0
20260509144511 57 275 0.0 0.0 0.00 0.00 0.00 86 1014.1
20260509143007 56 275 0.0 0.0 0.00 0.00 0.00 85 1014.2
20260509141502 55 275 0.0 0.0 0.00 0.00 0.00 85 1014.2
20260509140103 55 275 0.0 0.0 0.00 0.00 0.00 85 1014.0
20260509134557 54 275 0.0 0.0 0.00 0.00 0.00 84 1013.8
20260509133054 54 275 0.0 0.0 0.00 0.00 0.00 84 1013.8
20260509130100 54 275 0.0 0.0 0.00 0.00 0.00 82 1013.5
20260509124553 55 275 0.0 0.0 0.00 0.00 0.00 81 1013.3
20260509123144 55 275 0.0 0.0 0.00 0.00 0.00 80 1013.3
20260509120041 56 275 0.0 0.0 0.00 0.00 0.00 79 1013.4
20260509114540 57 275 0.0 1.0 0.00 0.00 0.00 78 1013.4
20260509113040 57 275 0.0 0.0 0.00 0.00 0.00 78 1013.4
20260509110037 58 273 0.0 3.0 0.00 0.00 0.00 77 1013.3
20260509104536 58 271 1.0 6.0 0.00 0.00 0.00 77 1013.4
20260509103039 58 258 2.0 7.0 0.00 0.00 0.00 77 1013.4
20260509100032 58 272 3.0 5.0 0.00 0.00 0.00 77 1013.7
20260509094528 58 281 2.0 4.0 0.00 0.00 0.00 77 1013.6
20260509093027 58 276 1.0 3.0 0.00 0.00 0.00 77 1013.7
20260509090034 58 273 0.0 4.0 0.00 0.00 0.00 77 1013.7
20260509084526 58 284 2.0 4.0 0.00 0.00 0.00 77 1013.8
20260509083033 58 267 1.0 3.0 0.00 0.00 0.00 77 1014.0
20260509080021 59 248 0.0 2.0 0.00 0.00 0.00 76 1013.9
20260509074516 60 248 0.0 0.0 0.00 0.00 0.00 74 1013.8
20260509073023 60 248 0.0 0.0 0.00 0.00 0.00 74 1013.7
20260509070009 61 248 0.0 2.0 0.00 0.00 0.00 72 1013.9
20260509064507 62 248 0.0 0.0 0.00 0.00 0.00 72 1013.9
20260509063013 62 248 0.0 0.0 0.00 0.00 0.00 71 1013.9
20260509060003 64 248 1.0 4.0 0.00 0.00 0.00 69 1014.0
20260509054616 64 246 2.0 7.0 0.00 0.00 0.00 68 1014.0
20260509053132 64 269 5.0 11.0 0.00 0.00 0.00 68 1013.9
20260509050056 65 251 6.0 12.0 0.00 0.00 0.00 70 1013.7
20260509044632 65 236 6.0 9.0 0.00 0.00 0.00 71 1013.7
20260509043125 65 240 4.0 9.0 0.00 0.00 0.00 70 1013.6
20260509040048 67 238 8.0 12.0 0.00 0.00 0.00 69 1013.4
20260509034550 67 234 4.0 8.0 0.00 0.00 0.00 68 1013.4
20260509033047 68 360 4.0 10.0 0.00 0.00 0.00 66 1013.3
20260509024544 73 360 4.0 9.0 0.00 0.00 0.00 60 1013.1
20260509023044 75 242 7.0 13.0 0.00 0.00 0.00 56 1013.0
20260509020042 78 234 7.0 12.0 0.00 0.00 0.00 52 1012.9
20260509014542 79 266 7.0 13.0 0.00 0.00 0.00 51 1012.8
20260509013040 80 249 7.0 14.0 0.00 0.00 0.00 51 1012.9
20260509010039 83 252 5.0 12.0 0.00 0.00 0.00 47 1013.0
20260509004549 83 284 3.0 10.0 0.00 0.00 0.00 47 1013.1
20260509003048 84 242 3.0 10.0 0.00 0.00 0.00 47 1013.1
20260509000036 85 261 2.0 9.0 0.00 0.00 0.00 45 1013.4
20260508234535 86 275 3.0 9.0 0.00 0.00 0.00 44 1013.6
20260508233034 86 249 4.0 8.0 0.00 0.00 0.00 44 1013.7
20260508230031 87 237 4.0 8.0 0.00 0.00 0.00 45 1014.1
20260508224536 86 263 3.0 10.0 0.00 0.00 0.00 44 1014.2
20260508223041 85 254 1.0 8.0 0.00 0.00 0.00 47 1014.5
20260508220023 84 311 1.0 9.0 0.00 0.00 0.00 47 1014.9
20260508214520 83 294 3.0 9.0 0.00 0.00 0.00 47 1015.1
20260508213023 82 250 3.0 11.0 0.00 0.00 0.00 49 1015.3
20260508210018 80 263 6.0 12.0 0.00 0.00 0.00 48 1015.7
20260508204513 80 218 6.0 12.0 0.00 0.00 0.00 48 1015.8
20260508203009 79 236 4.0 8.0 0.00 0.00 0.00 51 1015.9
20260508200009 76 15 5.0 10.0 0.00 0.00 0.00 53 1016.0
20260508194501 75 208 2.0 9.0 0.00 0.00 0.00 53 1016.1
20260508193103 74 263 8.0 11.0 0.00 0.00 0.00 54 1016.4
20260508190051 72 267 7.0 10.0 0.00 0.00 0.00 54 1016.7
20260508184549 71 245 6.0 9.0 0.00 0.00 0.00 54 1016.9
20260508183046 70 281 4.0 10.0 0.00 0.00 0.00 56 1017.0
20260508180039 67 272 3.0 9.0 0.00 0.00 0.00 61 1017.2
20260508174536 66 246 5.0 9.0 0.00 0.00 0.00 60 1017.3
20260508173033 65 249 4.0 13.0 0.00 0.00 0.00 63 1017.3
20260508170030 64 252 4.0 8.0 0.00 0.00 0.00 68 1017.3
20260508164525 63 254 1.0 8.0 0.00 0.00 0.00 70 1017.2
20260508163029 62 227 4.0 7.0 0.00 0.00 0.00 73 1017.3
20260508160019 59 286 3.0 6.0 0.00 0.00 0.00 79 1017.3
20260508154508 58 227 2.0 7.0 0.00 0.00 0.00 82 1017.3
20260508153003 57 273 3.0 7.0 0.00 0.00 0.00 84 1017.4